Location: Bush Observatory
(40.2653°N, 94.3194°W)
Time: 02:00:30
(UTC-05:00)

Daily predictions for brighter satellites

Satellite Brightness Start Highest point End
(mag) Time Altitude Azimuth Time Altitude Azimuth Time Altitude Azimuth
SL-16 R/B 4.4 03:41:34 22° N 03:41:34 22° N 03:43:39 10° N
Resurs 1-4 Rocket 4.3 03:33:38 10° NNE 03:35:23 20° NNE 03:35:23 20° NNE
SL-16 R/B 4.1 03:36:53 10° N 03:41:36 26° NE 03:46:16 10° ESE
Cosmos 2227 Rocket 3.8 03:53:25 29° NNE 03:53:25 29° NNE 03:56:09 10° NNE
Okean O Rocket 4.5 03:49:00 10° NE 03:50:21 14° ENE 03:50:21 14° ENE
Cosmos 2297 Rocket 3.5 04:01:18 36° NE 04:01:18 36° NE 04:04:41 10° NNE
Lacrosse 5 3.7 04:12:13 25° NNE 04:12:13 25° NNE 04:14:29 10° NE
Cosmos 2298 Rocket 4.4 04:38:31 62° E 04:38:31 62° E 04:43:32 10° NNE
Cosmos 2344 4.1 04:37:46 43° NW 04:38:19 44° NW 04:46:50 10° NNE
ADEOS Rocket 4.2 04:37:38 10° NNE 04:44:10 43° E 04:50:02 10° SSE
Cosmos 2058 Rocket 4.0 04:42:42 10° N 04:46:14 45° NE 04:46:14 45° NE
USA 215 3.1 04:41:15 10° SE 04:47:48 75° SW 04:48:46 64° WNW
Cosmos 1727 Rocket 4.2 04:49:02 56° NW 04:49:02 56° NW 04:54:27 10° N
Cosmos 2173 Rocket 4.3 04:43:03 10° N 04:49:06 64° E 04:55:13 10° SSE
Tiangong 1 4.1 04:52:48 16° ENE 04:52:48 16° ENE 04:53:31 10° E
Cosmos 2150 Rocket 4.0 04:51:06 71° ESE 04:51:16 72° ESE 04:56:25 10° NNE
Cosmos 1459 Rocket 4.2 04:46:11 10° N 04:52:33 70° E 04:58:48 10° SSE
CENTAUR R/B 3.4 04:45:05 10° NNW 04:52:53 66° NE 05:01:10 10° SE
CZ-2C R/B 3.8 04:56:28 74° E 04:56:34 74° ENE 05:01:14 10° N
FALCON 9 R/B 3.8 04:54:19 28° S 04:57:03 38° SE 05:12:52 10° E
NOSS 2-2 (D) 4.0 05:04:35 51° SE 05:04:56 53° ESE 05:09:24 10° NE
CZ-4B R/B 3.2 05:00:12 10° NNE 05:05:39 78° ESE 05:08:27 31° S
CZ-2D R/B 3.7 05:02:15 10° N 05:04:35 22° NNW 05:04:35 22° NNW
Meteor 1-15 Rocket 4.1 05:02:43 10° N 05:08:20 89° E 05:13:59 10° S
Cosmos 1898 Rocket 3.4 05:09:59 67° WSW 05:10:25 71° WNW 05:15:43 10° NNE
IRS-1C Rocket 4.0 05:06:58 10° N 05:12:15 73° WNW 05:13:17 56° SW
Cosmos 858 Rocket 4.4 05:15:55 58° WSW 05:16:46 69° WNW 05:22:03 10° NNE
BREEZE M DEB (TANK) 3.7 05:16:22 30° NNW 05:17:04 32° N 05:24:00 10° ENE
Cosmos 1937 Rocket 3.4 05:16:21 46° SSW 05:17:56 84° WNW 05:23:15 10° NNE
Resurs 1-4 Rocket 3.8 05:14:14 10° NNW 05:16:27 19° NW 05:16:27 19° NW
NOSS 2-2 (C) 3.5 05:19:34 59° S 05:20:17 78° ESE 05:24:57 10° NE
NOSS 2-2 (E) 3.4 05:20:27 65° SSW 05:21:05 89° ESE 05:25:53 10° NE
Meteor 2-4 Rocket 3.9 05:20:16 47° WSW 05:21:10 51° WNW 05:26:58 10° N
Cosmos 2098 Rocket 3.4 05:20:57 10° N 05:25:15 79° E 05:30:45 10° S
SL-16 R/B 2.3 05:20:30 10° NW 05:25:56 47° WSW 05:31:18 10° S
Okean O Rocket 2.0 05:24:06 10° N 05:27:49 42° NW 05:27:49 42° NW
Meteor 2-9 Rocket 4.3 05:23:00 10° NNW 05:28:31 52° W 05:34:07 10° SSW
DELTA 2 R/B (1) 3.5 05:27:00 45° W 05:28:45 84° S 05:34:21 10° E
Cosmos 1602 Rocket 3.6 05:29:56 10° S 05:34:21 78° E 05:38:46 10° N
Cosmos 2227 Rocket 3.7 05:35:15 18° NW 05:35:15 18° NW 05:38:59 10° N
PSLV R/B 3.4 05:33:29 10° NNE 05:37:49 89° WNW 05:41:42 12° SSW
CZ-4B R/B 3.4 05:35:33 10° N 05:39:49 46° WNW 05:40:53 38° WSW
Cosmos 2228 3.1 05:36:43 10° NNW 05:41:00 53° W 05:45:13 10° S
Cosmos 2297 Rocket 3.5 05:43:09 21° WNW 05:43:34 21° NW 05:47:49 10° N
Cosmos 192 4.2 05:41:36 10° NNW 05:46:30 66° WSW 05:51:22 10° S
MOS 1 Rocket 4.0 05:42:15 10° NNE 05:47:08 60° E 05:52:17 10° S
USA 129 4.3 05:47:40 10° SE 05:49:00 19° ENE 05:49:50 14° NE
Lacrosse 5 3.8 05:51:26 13° NW 05:53:32 16° NNW 05:56:43 10° NNE
Cosmos 1812 Rocket 3.5 05:55:53 10° N 06:00:22 82° W 06:04:50 10° S
COBE Rocket 3.8 05:56:42 10° NNE 06:01:29 82° ESE 06:06:07 10° S
Cosmos 1802 Rocket 4.4 05:59:24 10° NNW 06:04:55 36° W 06:10:24 10° SSW
BREEZE-M DEB (TANK) 3.4 05:52:41 10° WNW 06:05:38 86° SW 06:09:16 10° SE
Cosmos 1943 3.8 06:00:22 10° NNW 06:05:56 61° ENE 06:11:30 10° SE
Cosmos 468 4.5 06:01:34 10° NNW 06:06:50 89° ENE 06:12:04 10° SSE
ADEOS II 2.2 06:03:22 10° N 06:08:31 55° WNW 06:13:37 10° SSW
OAO 2 Rocket 4.0 06:05:13 19° WSW 06:08:44 48° S 06:13:51 10° ESE
AVUM R/B 2.8 06:07:06 10° NNW 06:09:26 60° ENE 06:11:37 10° SE
Cosmos 1725 Rocket 4.0 06:03:29 10° NNW 06:09:41 61° W 06:15:47 10° S
Intercosmos 25 Rocket 3.9 06:06:23 10° N 06:10:16 83° E 06:16:20 10° S
Cosmos 1603 3.8 06:08:20 10° NNW 06:13:51 51° WSW 06:19:18 10° S
Cosmos 2263 Rocket 3.0 06:08:57 10° S 06:14:21 54° ESE 06:19:46 10° NNE
Genesis I 4.2 06:15:18 18° W 06:17:26 30° NW 06:20:59 10° NNE
Meteor 1-22 Rocket 4.4 06:12:29 10° N 06:18:03 81° E 06:23:51 10° SSE
Meteor 2-17 Rocket 4.4 06:12:43 10° NNW 06:18:49 67° W 06:24:54 10° S
Cosmos 1048 Rocket 4.0 06:20:47 10° NNW 06:25:56 87° ENE 06:31:03 10° SSE
Ariane Rocket 3.6 06:21:16 10° NNE 06:26:20 61° ESE 06:31:22 10° S
Tiangong 1 0.9 06:24:41 15° WNW 06:27:02 75° SSW 06:30:03 10° ESE
ADEOS Rocket 3.9 06:23:21 10° N 06:29:26 33° WNW 06:34:59 10° SW
Cosmos 1766 3.5 06:26:21 10° N 06:30:23 77° E 06:34:21 10° SSE
Cosmos 1269 Rocket 4.0 06:27:24 10° NNW 06:32:40 71° WSW 06:37:54 10° S
SJ-6F 4.4 06:28:54 10° N 06:33:05 78° WNW 06:37:16 10° SSW
COSMO-SKYMED 1 2.7 06:29:05 10° SSE 06:33:25 83° ENE 06:37:46 10° N
Cosmos 1825 Rocket 3.5 06:29:26 10° SSW 06:33:48 71° W 06:38:11 10° N
Meteor 1-31 Rocket 3.2 06:30:57 10° N 06:34:40 42° WNW 06:38:23 10° SW
Meteor 1-21 4.4 06:30:01 10° S 06:35:47 85° E 06:41:38 10° N
Cosmos 1340 3.2 06:32:47 10° SW 06:36:19 38° WNW 06:39:54 10° N
Okean-O 3.7 06:35:24 10° NNW 06:39:02 25° WNW 06:42:41 10° WSW
Cosmos 372 Rocket 3.9 06:36:53 10° SSW 06:41:59 80° WNW 06:47:09 10° NNE
CENTAUR R/B 3.8 06:36:30 10° NW 06:43:17 31° WSW 06:50:19 10° SSW
Cosmos 405 Rocket 4.1 06:40:57 10° SSE 06:44:27 42° E 06:47:58 10° NNE
BREEZE-M DEB (TANK) 2.7 06:45:56 10° WNW 06:48:30 40° SW 06:53:01 10° SSE
